[[{"header":{"parameterUnit":"m.s-1","parameterCategory":1,"la1":30.2991,"la2":30.254,"lo1":-89.0895,"lo2":-89.0444,"dy":0.0017,"dx":0.0017,"nx":28,"ny":28,"refTime":"2024-05-05T21:00:00:Z","depth":0,"parameterNumber":2,"parameterNumberName":"U-component_of_WINDS"},"data":[0,0,0,0,0,0,0,0,0,0,0,0,0,0,0,0,0,0,0,0,0,0,0,0,0,0,0,0,0,0,0,0,0,0,0,0,0,0,0,0,0,0,0,0,0,0,0,0,0,0,0,0,0,0,0,0,0,0,-2.2835,-2.2835,0,-2.2848,-2.2848,-2.2849,-2.2814,-2.2812,-2.2811,-2.281,-2.2824,-2.2826,-2.2827,0,0,0,0,0,0,0,0,0,0,0,0,0,-2.2779,-2.2781,-2.2835,-2.2835,-2.2835,-2.2848,-2.2848,-2.2849,-2.2814,-2.2812,-2.2811,-2.281,-2.2824,-2.2825,-2.2827,0,0,0,0,0,0,0,0,0,0,0,0,0,-2.2799,-2.2781,-2.2835,-2.2819,-2.2818,-2.2848,-2.2848,-2.2849,-2.2814,-2.2812,-2.2811,-2.2809,-2.2823,-2.2825,-2.2827,-2.2873,0,0,-2.2834,-2.2835,0,0,0,0,0,0,0,0,-2.2798,-2.2801,-2.2821,-2.282,-2.2819,-2.2828,-2.2834,-2.2857,-2.2814,-2.2816,-2.281,-2.2808,-2.2827,-2.2828,-2.2834,-2.2874,-2.2874,-2.2834,-2.2835,-2.2836,-2.2837,0,0,0,0,0,0,0,-2.2797,-2.2801,-2.284,-2.2822,-2.282,-2.2812,-2.2813,-2.2838,-2.283,-2.2815,-2.2813,-2.2815,-2.2826,-2.2833,-2.2835,-2.2875,-2.2834,-2.2836,-2.2837,-2.2838,-2.2952,-2.2954,0,0,0,0,0,0,-2.2797,-2.28,-2.284,-2.284,-2.2804,-2.2814,-2.2815,-2.2826,-2.283,-2.2829,-2.2816,-2.2813,-2.283,-2.2832,-2.2835,-2.2889,-2.2836,-2.2838,-2.2839,-2.2951,-2.2953,-2.2955,0,0,0,0,0,0,-2.2796,-2.2801,-2.2839,-2.2819,-2.2824,-2.2817,-2.283,-2.2828,-2.2834,-2.283,-2.2829,-2.2825,-2.2829,-2.2832,-2.2864,-2.2889,-2.2839,-2.2841,-2.2949,-2.2951,-2.2954,-2.2996,0,0,0,0,0,0,-2.2795,-2.2801,-2.2818,-2.282,-2.2825,-2.2868,-2.2831,-2.2829,-2.2838,-2.2834,-2.2838,-2.2837,-2.2828,-2.2861,-2.2866,-2.289,-2.2842,-2.2946,-2.295,-2.2953,-2.2993,-2.3,-2.3007,0,0,0,0,0,-2.2793,-2.283,-2.2819,-2.2824,-2.2846,-2.2869,-2.2872,-2.286,-2.284,-2.2857,-2.2855,-2.2837,-2.2885,-2.2865,-2.287,-2.2895,-2.2945,-2.2949,-2.2953,-2.299,-2.2999,-2.3006,0,0,0,0,0,0,-2.2831,-2.2829,-2.2818,-2.2856,-2.2863,-2.2863,-2.2884,-2.287,-2.2883,-2.2879,-2.2864,-2.2865,-2.29,-2.2901,-2.2878,-2.294,-2.2912,-2.2917,-2.2938,-2.2946,-2.2953,-2.2952,-2.2844,0,0,0,0,0,-2.2843,-2.2862,-2.286,-2.2894,-2.2898,-2.2891,-2.2901,-2.2891,-2.2898,-2.29,-2.29,-2.2908,-2.2924,-2.2936,-2.2951,-2.2993,-2.2994,-2.3014,-2.3021,-2.3026,-2.3031,-2.3053,-2.3062,-2.2968,-2.2968,-2.2968,0,0,-2.287,-2.2872,-2.2884,-2.2902,-2.2906,-2.2926,-2.2894,-2.2916,-2.2931,-2.2904,-2.2934,-2.2934,-2.2941,-2.2979,-2.2995,-2.2981,-2.3057,-2.3031,-2.3036,-2.3037,-2.3058,-2.3067,-2.3075,-2.2971,-2.297,-2.297,0,0,-2.2928,-2.2931,-2.296,-2.2965,-2.2972,-2.2967,-2.2974,-2.2977,-2.2976,-2.3006,-2.2986,-2.3004,-2.3033,-2.3039,-2.3046,-2.3108,-2.3091,-2.3113,-2.3149,-2.3171,-2.3179,-2.3185,-2.3207,-2.3215,-2.3118,-2.3118,-2.3118,0,-2.2959,-2.2989,-2.2976,-2.3,-2.3009,-2.2986,-2.3015,-2.302,-2.3032,-2.3039,-2.3022,-2.3059,-2.3062,-2.3101,-2.3116,-2.3122,-2.313,-2.3112,-2.3179,-2.3185,-2.3191,-2.3211,-2.322,-2.3121,-2.312,-2.312,-2.312,0,-2.3027,-2.3048,-2.307,-2.3082,-2.3093,-2.312,-2.3112,-2.3124,-2.3115,-2.3112,-2.3143,-2.3146,-2.3162,-2.317,-2.3161,-2.3208,-2.3199,-2.3181,-2.3152,-2.3203,-2.3221,-2.3229,-2.3124,-2.3123,-2.3123,-2.3122,0,0,-2.3108,-2.3113,-2.3122,-2.3127,-2.3134,-2.3149,-2.3175,-2.3191,-2.3202,-2.3211,-2.3232,-2.3258,-2.3242,-2.325,-2.3241,-2.3261,-2.331,-2.3241,-2.3241,-2.3253,-2.3361,-2.3374,-2.3383,-2.3299,-2.3301,-2.3302,-2.336,0,-2.3165,-2.3208,-2.3199,-2.3242,-2.3261,-2.324,-2.3263,-2.3269,-2.3268,-2.3284,-2.3282,-2.33,-2.3278,-2.3282,-2.3301,-2.33,-2.3331,-2.3295,-2.3319,-2.332,-2.3316,-2.3393,-2.3406,-2.3461,-2.3368,-2.3369,-2.337,0,-2.3237,-2.3249,-2.3294,-2.3298,-2.3305,-2.3326,-2.3339,-2.3355,-2.3362,-2.336,-2.3369,-2.3357,-2.3383,-2.3355,-2.339,-2.3366,-2.3375,-2.3376,-2.3378,-2.3379,-2.3347,-2.3395,-2.3478,-2.3486,-2.3382,-2.3381,-2.338,0,-2.329,-2.3318,-2.3348,-2.3354,-2.3359,-2.3374,-2.3377,-2.3383,-2.3393,-2.3405,-2.3412,-2.3427,-2.3435,-2.3447,-2.344,-2.342,-2.3477,-2.3448,-2.3475,-2.3475,-2.3487,-2.3486,-2.3572,-2.3494,-2.3494,-2.3494,-2.3494,0,-2.3354,-2.3382,-2.3373,-2.3391,-2.3423,-2.3412,-2.3443,-2.3444,-2.3449,-2.3468,-2.3452,-2.347,-2.3459,-2.3476,-2.347,-2.35,-2.3505,-2.3503,-2.3501,-2.3504,-2.3504,-2.3509,-2.3505,-2.3496,-2.3496,-2.3495,-2.3495,0,-2.3419,-2.3413,-2.3445,-2.3448,-2.345,-2.3473,-2.3475,-2.3493,-2.349,-2.3514,-2.3519,-2.3515,-2.3535,-2.3529,-2.355,-2.3546,-2.3584,-2.3578,-2.3582,-2.358,-2.3607,-2.3605,-2.3699,-2.371,-2.3626,-2.3627,-2.3628,0,-2.346,-2.3481,-2.3486,-2.3497,-2.3502,-2.352,-2.3531,-2.3521,-2.3532,-2.3543,-2.356,-2.3578,-2.3592,-2.3624,-2.3623,-2.3639,-2.3633,-2.3665,-2.3635,-2.3637,-2.3633,-2.3631,-2.3633,-2.367,-2.3671,-2.3672,-2.3673,0,-2.3532,-2.3529,-2.3544,-2.3559,-2.3572,-2.3583,-2.3593,-2.3603,-2.3594,-2.3608,-2.3628,-2.3639,-2.3661,-2.3679,-2.3694,-2.3697,-2.3684,-2.3682,-2.3689,-2.3692,-2.3693,-2.3692,-2.3597,-2.368,-2.3679,-2.3678,-2.3678,-2.3678,-2.3586,-2.3604,-2.361,-2.3628,-2.3635,-2.3644,-2.3661,-2.3661,-2.3677,-2.3694,-2.3688,-2.371,-2.3718,-2.3737,-2.3742,-2.376,-2.3748,-2.3758,-2.3761,-2.3763,-2.3767,-2.3691,-2.3763,-2.3763,-2.3763,-2.3762,-2.3762,0,-2.3657,-2.3661,-2.3677,-2.3692,-2.3706,-2.3692,-2.3702,-2.3715,-2.3735,-2.3744,-2.3758,-2.3781,-2.3799,-2.38,-2.3817,-2.3831,-2.3825,-2.3836,-2.3834,-2.3835,-2.3777,-2.3769,-2.384,-2.384,-2.384,-2.384,-2.384,-2.384,-2.3696,-2.3726,-2.3723,-2.3756,-2.3759,-2.3782,-2.3789,-2.3798,-2.3804,-2.383,-2.3845,-2.3846,-2.3851,-2.3869,-2.3885,-2.3885,-2.3891,-2.3904,-2.3902,-2.3847,-2.3839,-2.3832,-2.3824,-2.3906,-2.3906,-2.3958,-2.3959,-2.3959]},{"header":{"parameterUnit":"m.s-1","parameterCategory":1,"la1":30.2991,"la2":30.254,"lo1":-89.0895,"lo2":-89.0444,"dy":0.0017,"dx":0.0017,"nx":28,"ny":28,"refTime":"2024-05-05T21:00:00:Z","depth":0,"parameterNumber":3,"parameterNumberName":"V-component_of_WINDS"},"data":[0,0,0,0,0,0,0,0,0,0,0,0,0,0,0,0,0,0,0,0,0,0,0,0,0,0,0,0,0,0,0,0,0,0,0,0,0,0,0,0,0,0,0,0,0,0,0,0,0,0,0,0,0,0,0,0,0,0,4.0439,4.0439,0,4.0446,4.0446,4.0446,4.0431,4.0431,4.0431,4.043,4.0436,4.0436,4.0437,0,0,0,0,0,0,0,0,0,0,0,0,0,4.0414,4.0415,4.0439,4.0439,4.0439,4.0446,4.0446,4.0446,4.0432,4.0431,4.043,4.043,4.0435,4.0436,4.0437,0,0,0,0,0,0,0,0,0,0,0,0,0,4.0423,4.0415,4.0439,4.0433,4.0433,4.0446,4.0446,4.0446,4.0432,4.0431,4.043,4.043,4.0435,4.0436,4.0437,4.0456,0,0,4.0439,4.044,0,0,0,0,0,0,0,0,4.0423,4.0424,4.0434,4.0434,4.0433,4.0437,4.0439,4.0449,4.0432,4.0432,4.043,4.0429,4.0437,4.0437,4.044,4.0456,4.0456,4.044,4.044,4.044,4.0441,0,0,0,0,0,0,0,4.0422,4.0424,4.0442,4.0434,4.0434,4.043,4.043,4.0441,4.0438,4.0432,4.0431,4.0432,4.0436,4.0439,4.044,4.0457,4.044,4.044,4.0441,4.0441,4.0489,4.049,0,0,0,0,0,0,4.0422,4.0423,4.0442,4.0442,4.0426,4.0431,4.0431,4.0436,4.0438,4.0437,4.0432,4.0431,4.0438,4.0439,4.044,4.0463,4.044,4.0441,4.0442,4.0488,4.0489,4.049,0,0,0,0,0,0,4.0422,4.0424,4.0441,4.0432,4.0434,4.0432,4.0438,4.0437,4.044,4.0438,4.0438,4.0436,4.0438,4.0439,4.0452,4.0463,4.0442,4.0442,4.0488,4.0489,4.049,4.0508,0,0,0,0,0,0,4.0421,4.0424,4.0431,4.0433,4.0435,4.0454,4.0438,4.0438,4.0442,4.044,4.0441,4.0441,4.0437,4.0451,4.0453,4.0463,4.0443,4.0487,4.0488,4.0489,4.0506,4.0509,4.0512,0,0,0,0,0,4.042,4.0436,4.0432,4.0434,4.0444,4.0454,4.0455,4.0451,4.0442,4.045,4.0449,4.0441,4.0461,4.0453,4.0455,4.0465,4.0486,4.0488,4.0489,4.0505,4.0509,4.0512,0,0,0,0,0,0,4.0435,4.0436,4.0431,4.0448,4.0451,4.0452,4.0461,4.0455,4.046,4.0459,4.0452,4.0453,4.0467,4.0468,4.0458,4.0484,4.0472,4.0474,4.0483,4.0487,4.049,4.0489,4.0444,0,0,0,0,0,4.044,4.0449,4.0449,4.0463,4.0465,4.0463,4.0467,4.0463,4.0466,4.0468,4.0468,4.0471,4.0478,4.0482,4.0489,4.0507,4.0507,4.0515,4.0518,4.052,4.0522,4.0532,4.0535,4.0496,4.0496,4.0496,0,0,4.0451,4.0452,4.0458,4.0466,4.0468,4.0477,4.0464,4.0474,4.048,4.0469,4.0482,4.0482,4.0485,4.0501,4.0507,4.0501,4.0533,4.0523,4.0524,4.0525,4.0534,4.0537,4.0541,4.0497,4.0497,4.0497,0,0,4.0474,4.0477,4.0489,4.0492,4.0496,4.0494,4.0497,4.0499,4.0499,4.0512,4.0504,4.0511,4.0523,4.0526,4.0529,4.0555,4.0548,4.0557,4.0572,4.0581,4.0584,4.0587,4.0596,4.06,4.0559,4.0559,4.0559,0,4.0487,4.05,4.0496,4.0506,4.051,4.0502,4.0514,4.0517,4.0522,4.0525,4.0518,4.0534,4.0536,4.0552,4.0558,4.0561,4.0564,4.0556,4.0584,4.0587,4.059,4.0598,4.0602,4.056,4.056,4.056,4.056,0,4.0515,4.0525,4.0534,4.054,4.0546,4.0557,4.0554,4.056,4.0556,4.0556,4.0569,4.0571,4.0577,4.0581,4.0577,4.0597,4.0593,4.0586,4.0573,4.0595,4.0602,4.0606,4.0562,4.0561,4.0561,4.0561,0,0,4.0547,4.0552,4.0555,4.0558,4.0562,4.0569,4.0581,4.0588,4.0593,4.0597,4.0606,4.0617,4.0611,4.0614,4.0611,4.0619,4.0639,4.0611,4.0611,4.0616,4.0661,4.0666,4.067,4.0635,4.0636,4.0636,4.0661,0,4.057,4.059,4.0587,4.0606,4.0615,4.0607,4.0617,4.062,4.062,4.0627,4.0627,4.0635,4.0626,4.0628,4.0636,4.0635,4.0648,4.0634,4.0643,4.0644,4.0642,4.0674,4.068,4.0703,4.0664,4.0664,4.0665,0,4.06,4.0606,4.0626,4.063,4.0633,4.0642,4.0649,4.0656,4.066,4.0659,4.0663,4.0658,4.067,4.0658,4.0673,4.0663,4.0667,4.0667,4.0668,4.0668,4.0655,4.0675,4.071,4.0713,4.067,4.0669,4.0669,0,4.0621,4.0634,4.0648,4.0651,4.0655,4.0662,4.0664,4.0667,4.0672,4.0678,4.0681,4.0687,4.0691,4.0696,4.0694,4.0685,4.0709,4.0697,4.0709,4.0709,4.0713,4.0713,4.0749,4.0717,4.0717,4.0717,4.0717,0,4.0647,4.0659,4.0658,4.0666,4.068,4.0677,4.069,4.0691,4.0695,4.0703,4.0697,4.0705,4.0701,4.0708,4.0706,4.0719,4.0721,4.072,4.072,4.0721,4.0721,4.0723,4.0721,4.0718,4.0718,4.0717,4.0717,0,4.0672,4.0672,4.0686,4.069,4.0691,4.0701,4.0703,4.0711,4.0711,4.0722,4.0724,4.0723,4.0732,4.073,4.0739,4.0738,4.0754,4.0752,4.0753,4.0752,4.0764,4.0762,4.0801,4.0806,4.0772,4.0772,4.0772,0,4.0689,4.0698,4.0703,4.0708,4.0711,4.072,4.0725,4.0722,4.0728,4.0733,4.0741,4.0749,4.0755,4.077,4.077,4.0777,4.0774,4.0787,4.0775,4.0776,4.0774,4.0773,4.0774,4.079,4.079,4.079,4.0791,0,4.0718,4.0717,4.0725,4.0733,4.0739,4.0745,4.075,4.0755,4.0753,4.0759,4.0769,4.0774,4.0784,4.0792,4.0799,4.0801,4.0795,4.0795,4.0798,4.0798,4.0799,4.0798,4.0759,4.0794,4.0793,4.0793,4.0793,4.0793,4.0739,4.0747,4.0752,4.0761,4.0765,4.077,4.0778,4.0779,4.0787,4.0795,4.0793,4.0803,4.0807,4.0816,4.0819,4.0827,4.0822,4.0826,4.0827,4.0828,4.0829,4.0798,4.0828,4.0828,4.0828,4.0828,4.0828,0,4.0767,4.077,4.0779,4.0787,4.0794,4.0789,4.0795,4.0801,4.081,4.0815,4.0822,4.0832,4.0841,4.0842,4.085,4.0856,4.0853,4.0858,4.0857,4.0857,4.0834,4.083,4.086,4.086,4.086,4.086,4.086,4.0859,4.0783,4.0797,4.0797,4.0813,4.0815,4.0826,4.083,4.0835,4.0838,4.0851,4.0858,4.0859,4.0862,4.087,4.0877,4.0878,4.088,4.0886,4.0885,4.0862,4.0859,4.0856,4.0853,4.0886,4.0887,4.0908,4.0908,4.0908]}]]